Location: Catstown
(52.4386°N, 7.2633°W)
Time: 12:55:46
(UTC+00:00)

ARIANE 5 R/B - Pass Details

Date: 18 September 2020
Orbit: 620 x 657 km, 98.2° (Epoch: 09 October)

Event Time Altitude Azimuth Distance (km) Brightness Sun altitude
Exits shadow 21:15:16 80° 156° (SSE) 641 2.4 -23.4°
Maximum altitude 21:15:31 89° 74° (ENE) 632 2.4 -23.4°
Drops below altitude 10° 21:19:53 10° 345° (NNW) 2,004 5.9 -23.9°
Sets 21:22:04 0° 346° (NNW) 2,913 6.8 -24.2°
